Regional Weather Roundup
Issued by NWS Charleston, SC

Current Version | Previous Version | Text Only | Print | Product List | Glossary Off
Versions: 1 2 3 4 5 6 7 8 9 10 11 12 13 14 15 16 17 18 19 20 21 22 23 24 25 26 27 28 29 30 31 32 33 34 35 36 37 38 39 40 41 42 43 44 45 46 47 48 49 50

000
ASUS42 KCHS 061111
RWRCHS

REGIONAL WEATHER ROUNDUP
NATIONAL WEATHER SERVICE CHARLESTON SC
600 AM EST FRI MAR 06 2015

NOTE: "FAIR" INDICATES FEW OR NO CLOUDS BELOW 12,000 FEET WITH NO
SIGNIFICANT WEATHER AND/OR OBSTRUCTIONS TO VISIBILITY.

NOT ALL STATIONS ARE QUALITY CONTROLLED BY THE NATIONAL
WEATHER SERVICE. USE DATA WITH CAUTION...ESPECIALLY
DEWPOINT OBSERVATIONS.

SCZ027-030-031-034>040-042>050-061200-
...SOUTHEAST SOUTH CAROLINA...

CITY           SKY/WX    TMP DP  RH WIND       PRES   REMARKS
N CHARLESTON   CLOUDY    39  33  79 NE13      30.35R WCI  31
WATERFRONT PRK   N/A     43 N/A N/A N20G26      N/A
MOUNT PLEASANT NOT AVBL
PINOPOLIS        N/A     39  34  81 NE13      30.26R WCI  32
MONCKS CORNER  CLOUDY    39  32  75 NE10      30.37R WCI  32
SUMMERVILLE    CLOUDY    39  34  81 N10       30.36R WCI  32
BEAUFORT MCAS  CLOUDY    41  36  82 N12       30.33R
BEAUFORT ARPT  CLOUDY    41  37  87 N20       30.33R
HILTON HEAD IS NOT AVBL
WALTERBORO     CLOUDY    41  34  75 NE8       30.36R
ALLENDALE      CLOUDY    41  34  75 NE8G14    30.35R

...SOUTHERN MIDLANDS AND PEE DEE...

CITY           SKY/WX    TMP DP  RH WIND       PRES   REMARKS
GEORGETOWN     NOT AVBL
KINGSTREE      NOT AVBL
ORANGEBURG     CLOUDY    38  29  70 NE10      30.37R WCI  31
BARNWELL       CLOUDY    39  34  81 NE12      30.37R WCI  32
AIKEN          CLOUDY    37  32  81 NE12      30.38R WCI  30
MANNING        CLOUDY    37  16  41 N7        30.37R WCI  32
COLUMBIA       CLOUDY    39  31  72 NE9       30.37R WCI  33
SUMTER         CLOUDY    36  30  78 N12       30.36R WCI  28
FLORENCE       CLOUDY    36  27  69 NE16      30.39R WCI  26
MYRTLE BEACH   CLOUDY    37  27  65 N16G26    30.39R WCI  28
N MYRTLE BEACH CLOUDY    35  27  72 N10       30.37R WCI  27

$$

GAZ063-065-086>088-099>101-113>116-118-119-134>141-150-061200-
...SOUTHEAST GEORGIA...

CITY           SKY/WX    TMP DP  RH WIND       PRES   REMARKS
SAVANNAH ARPT  CLOUDY    41  38  89 N10       30.33R
HUNTER AAF     CLOUDY    41  41 100 N12       30.30R
FORT STEWART   CLOUDY    43  41  93 NE9       30.30R
STATESBORO     CLOUDY    41  40  96 NE6       30.34R
SYLVANIA       CLOUDY    41  37  87 NE7       30.35R
CLAXTON        CLOUDY    43  37  81 NE9G16    30.32R

...CSRA...CENTRAL AND FAR SOUTHEAST GEORGIA...

CITY           SKY/WX    TMP DP  RH WIND       PRES   REMARKS
THOMSON        CLOUDY    41  37  86 NE5       30.40R
AUGUSTA-BUSH   CLOUDY    40  33  76 E9        30.36R WCI  34
AUGUSTA-DANIEL CLOUDY    41  34  76 NE9       30.35R
SWAINSBORO     CLOUDY    43  36  75 NE7       30.34R
VIDALIA        CLOUDY    43  39  87 NE13G21   30.31R
EASTMAN        CLOUDY    39  39 100 N3        30.35R
HAZLEHURST     CLOUDY    43  43 100 N7        30.29S FOG
ALMA           CLOUDY    44  39  82 N8        30.29R
WAYCROSS       CLOUDY    49  45  88 N9        30.28R
JESUP          CLOUDY    48  46  93 NE9       30.30R
BAXLEY         CLOUDY    45  45 100 N3        30.29R FOG
BRUNSWICK      CLOUDY    46  45  93 NE12      30.29R
SAINT SIMONS   CLOUDY    46  43  89 NE16      30.27R

$$

SCZ027-028-034-036>038-045-046-048>050-GAZ119-141-061200-
...LAKE AND SUPPLEMENTAL COASTAL OBSERVATIONS...

STATION/POSITION TIME  TEMP    WIND        PRES    WAVE   SWELL
                       AIR SEA DIR/SP/G            HT/PER HT/PER/DIR
                 (UTC) (F)     (DEG/KT/KT) (MB)    (FT/S) (FT/S/D)
UPR LAKE MARION  NOT AVBL
WINYAH BAY       NOT AVBL
LAKE MURRAY      1000   37      20/  4/ 11 1027.4R
ACE BASIN NERRS  NOT AVBL
FORT PULASKI     1000   43 54   30/ 16/ 21 1026.0R
SAPELO ISLAND    1000   47      30/ 14     1024.0R

$$

ANZ835-935-AMZ111-154-330-350-352-354-370-450-454-472-061200-
...C-MAN AND BUOY OBSERVATIONS...

STATION/POSITION TIME  TEMP    WIND        PRES    WAVE   SWELL
                       AIR SEA DIR/SP/G            HT/PER HT/PER/DIR
                 (UTC) (F)     (DEG/KT/KT) (MB)    (FT/S) (FT/S/D)
BUOY 41004       1050   47 68   20/ 25/ 31 1024.3R  10/ 8
BUOY 41008       1050   46 54   40/ 21/ 25 1024.6R   6/ 6   2/ 90/10
FOLLY BEACH CMAN 1100   40      10/ 16/ 19 1027.7R
CAPERS NEARSHORE 1000   41      30/ 21/ 25   N/A
FRIPP NEARSHORE  1000   43      30/ 19/ 21 1024.7R


STATION/POSITION TIME  TEMP    WIND        PRES    WAVE   SWELL
                       AIR SEA DIR/SP/G            HT/PER HT/PER/DIR
                 (UTC) (F)     (DEG/KT/KT) (MB)    (FT/S) (FT/S/D)
5E ST. MARYS GA  1021      54                N/A     4/ 4   2/110/11
FRYING PAN BUOY  1050   41 63   20/ 27/ 33 1026.2R  10/ 8
BUOY 41025       NOT AVBL
CAPE LOOKOUT NC  1100           20/ 21/ 26 1028.2R
BUOY 41002       1050   67 72   10/ 19/ 23 1019.6R   6/ 7   3/250/ 7
BUOY 41010       1020   75 75  240/  6/  8 1020.1R
ST AUGUSTINE FL  1100   54     360/ 22/ 25 1023.8R


$$



USA.gov is the U.S. government's official web portal to all federal, state and local government web resources and services.